Regional Weather Roundup
Issued by NWS Upton, NY

Current Version | Previous Version | Text Only | Print | Product List | Glossary On
Versions: 1 2 3 4 5 6 7 8 9 10 11 12 13 14 15 16 17 18 19 20 21 22 23 24 25 26 27 28 29 30 31 32 33 34 35 36 37 38 39 40 41 42 43 44 45 46 47 48 49 50
000 ASUS41 KOKX 231209 RWROKX REGIONAL WEATHER ROUNDUP NATIONAL WEATHER SERVICE NEW YORK NY 800 AM EDT SUN APR 23 2017 NOTE: "FAIR" INDICATES FEW OR NO CLOUDS BELOW 12,000 FEET WITH NO SIGNIFICANT WEATHER AND/OR OBSTRUCTIONS TO VISIBILITY. NYZ071-072-176-178-NJZ106-104-231300- NEW YORK CITY METRO AREA CITY SKY/WX TMP DP RH WIND PRES REMARKS Central Park SUNNY 49 36 61 VRB6 30.14R Wall St Helipt SUNNY 48 37 66 NE10 30.12R Bronx Bot Gard N/A 50 34 53 E2 30.12R LaGuardia APRT MOSUNNY 51 35 54 NE6 30.12R Kennedy INTL MOSUNNY 51 38 60 N9 30.13R Breezy Point N/A 48 N/A N/A N12G17 N/A Newark/Liberty MOSUNNY 48 36 63 N12 30.12R Teterboro SUNNY 49 37 63 NE6 30.12R $$ NYZ177-179-078>081-231300- LONG ISLAND NEW YORK CITY SKY/WX TMP DP RH WIND PRES REMARKS Jones Beach N/A 48 N/A N/A NE9 N/A Matinecock PT NOT AVBL Farmingdale SUNNY 49 39 68 N10 30.11R MacArthur/ISP PTSUNNY 49 39 68 N10 30.10R Shirley SUNNY 48 41 76 N9 30.11R Mt Sinai Harb N/A N/A N/A N/A N2 N/A Westhampton SUNNY 48 42 80 N6 30.12R East Hampton N/A 47 38 71 N6 30.10R Montauk N/A 48 40 73 NW7 30.10R $$ NYZ052-065-067-231300- HUDSON VALLEY CITY SKY/WX TMP DP RH WIND PRES REMARKS White Plains SUNNY 48 36 63 N8 30.10R Larchmont Harb N/A 46 N/A N/A NE6 N/A Croton O-T Hud N/A 48 N/A N/A N3 N/A Newburgh SUNNY 41 37 87 CALM 30.13R Montgomery SUNNY 42 38 85 S3 30.11R Poughkeepsie SUNNY 42 38 85 CALM 30.12R Albany MOSUNNY 44 35 70 CALM 30.13R $$ NJZ001-105-106-008-010-013-015-019>022-104-231300- NEW JERSEY CITY SKY/WX TMP DP RH WIND PRES REMARKS Newark/Liberty MOSUNNY 48 36 63 N12 30.12R Teterboro SUNNY 49 37 63 NE6 30.12R Caldwell SUNNY 48 36 63 CALM 30.13R Somerville SUNNY 48 37 65 VRB3 30.11R Linden N/A 49 34 56 NE7 30.12S Sussex SUNNY 41 38 89 CALM 30.13R Andover N/A 42 37 82 NE3 30.13R Trenton MOSUNNY 46 36 68 N6 30.12R Millville CLOUDY 48 40 73 N8 30.11R Atlantic City CLOUDY 47 40 76 N7 30.10R Wrightstown CLOUDY 46 39 77 N6 30.09R Toms River CLOUDY 45 42 89 N6 30.12R Belmar CLOUDY 47 39 74 N6 30.12R $$ PAZ047>061-062-071-231300- EASTERN PENNSYLVANIA CITY SKY/WX TMP DP RH WIND PRES REMARKS Philadelphia PTSUNNY 48 37 65 N8 30.12R Allentown SUNNY 45 35 68 CALM 30.13R Scranton SUNNY 42 35 76 CALM 30.12R $$ CTZ002-004>006-009-010-012-RIZ004-006-007-MAZ004-011-015-231300- SOUTHERN NEW ENGLAND IN CT CITY SKY/WX TMP DP RH WIND PRES REMARKS Bradley INTL MOSUNNY 48 36 63 NW5 30.10R Hartford SUNNY 49 36 61 N6 30.10R Danbury SUNNY 46 37 71 N6 30.12R Wtrbury/Oxford MOSUNNY 45 36 70 N7 30.11R Bridgeport SUNNY 50 37 61 N10 30.11R Meriden SUNNY 49 37 63 NW7 30.11R New Haven SUNNY 48 38 68 N9 30.11R Chester N/A 48 36 61 N8G15 30.09R Groton MOSUNNY 49 37 63 N9 30.08R Wilimantic SUNNY 49 37 63 VRB3 30.09R IN RI CITY SKY/WX TMP DP RH WIND PRES REMARKS Providence CLOUDY 48 38 68 N10 30.08R Block Island CLOUDY 46 40 79 NW6 30.08R Westerly MOSUNNY 49 39 68 NW7 30.09R IN MA CITY SKY/WX TMP DP RH WIND PRES REMARKS Boston SUNNY 46 37 71 NW12 30.07R Worcester SUNNY 43 32 65 NW13 30.06R Westfield SUNNY 46 38 73 NW3 30.10R Provincetown CLOUDY 45 42 89 NW8 30.07R Nantucket CLOUDY 46 40 79 NW12 30.06R $$ ANZ330-335-338-340-345-350-353-355-231300- COASTAL MARINE OBSERVATIONS STATION/POSITION TIME SKY/WX TEMP WIND PRES VSBY WAVE AIR SEA DIR/SP/G HT/PER (UTC) (F) (DEG/KT/KT) (MB) (MI) (FT/S) NY HARB ENTRANCE 1050 49 49 10/ 12/ 14 1018.8 4/11 20 S FIRE ISLAND 1150 48 48 10/ 14/ 16 1018.7 4/10 GREAT SOUTH BAY 1130 48 55 10/ 8/ 10 N/A 23 SSW MONTAUK P 1050 45 45 1018.7 4/11 15 E BARNEGAT LI 1130 50 N/A 5/12 HUDSON CANYON 1050 47 47 50/ 6/ 8 1017.9 5/11 KINGS POINT 1142 47 46 60/ 4/ 7 1019.8 EXECUTION ROCKS NOT AVBL CENTRAL LI SOUND 1115 47 20/ 6/ 8 N/A 0 EASTERN LI SOUND NOT AVBL ROBBINS REEF 1142 48 360/ 10/ 13 1020.1 $$ >>>>>>>>>>>>>>>>>>>>>>>>>>>> KEY <<<<<<<<<<<<<<<<<<<<<<<<<<< > < > SKY/WX - Sky Condition/Present Weather < > TMP - Temperature in Fahrenheit < > DP - Dew Point in Fahrenheit < > RH - Relative Humidity in Percent < > WIND - Direction (from) and Speed in MPH < > PRES - Mean Sea Level Pressure (inches of Hg) < > WCI - Wind Chill Index < > VSB - VISIBILITY IN MILES < > HX - HEAT INDEX < > TC - TEMPERATURE IN CELSIUS < > VRB - VARIABLE WIND DIRECTION < > < >>>>>>>>>>>>>>>>>>>>>>>>>>>> KEY <<<<<<<<<<<<<<<<<<<<<<<<<<<

USA.gov is the U.S. government's official web portal to all federal, state and local government web resources and services.